When you browse on this site, cookies collect data to enhance your experience and personalize the content and advertising you see.
Visit our Privacy Policy to learn more. By continuing to use the site, you agree to this use of cookies and data.
  • In Hungary
  • List of Countries
  • For 7 days
  • Water Temperature
  • Weather Map
  • News
  • Weather Widgets
  • user-avatar
    Login

    Hourly Weather Yavora

    Today, 10 December, Tuesday

    Time Temperature Precipitation Wind Pressure Humidity
    00:00 +3°C° 0 mm 1 mps 700 mmHg 94%
    01:00 +3°C° 0 mm 1 mps 700 mmHg 94%
    02:00 +3°C° 0 mm 1 mps 700 mmHg 94%
    03:00 +3°C° 0 mm 1 mps 700 mmHg 94%
    04:00 +3°C° 0 mm 1 mps 701 mmHg 94%
    05:00 +3°C° 0 mm 1 mps 701 mmHg 94%
    06:00 +3°C° 0 mm 1 mps 701 mmHg 94%
    07:00 +3°C° 0 mm 1 mps 701 mmHg 94%
    08:00 +2°C° 0 mm 0 mps 702 mmHg 96%
    09:00 +4°C° 0.7 mm 1 mps 702 mmHg 96%
    10:00 +3°C° 0.7 mm 2 mps 703 mmHg 96%
    11:00 +3°C° 0.7 mm 2 mps 703 mmHg 96%
    12:00 +2°C° 0.7 mm 2 mps 704 mmHg 96%
    13:00 +2°C° 0.7 mm 2 mps 704 mmHg 96%
    14:00 +2°C° 0 mm 2 mps 705 mmHg 96%
    15:00 +1°C° 0.4 mm 3 mps 705 mmHg 95%
    16:00 0°C° 0.4 mm 3 mps 706 mmHg 94%
    17:00 0°C° 0.4 mm 3 mps 706 mmHg 94%
    18:00 0°C° 0.1 mm 3 mps 706 mmHg 90%
    19:00 -1°C° 0.1 mm 3 mps 707 mmHg 87%
    20:00 -1°C° 0.1 mm 3 mps 708 mmHg 83%
    21:00 -2°C° 0 mm 2 mps 708 mmHg 86%
    22:00 -2°C° 0 mm 2 mps 708 mmHg 88%
    23:00 -3°C° 0 mm 2 mps 708 mmHg 90%

    Tomorrow, 11 December, Wednesday

    Time Temperature Precipitation Wind Pressure Humidity
    00:00 -1°C° 0.1 mm 1 mps 708 mmHg 91%
    01:00 -1°C° 0.1 mm 1 mps 708 mmHg 92%
    02:00 -1°C° 0.1 mm 1 mps 709 mmHg 93%
    03:00 -1°C° 0.1 mm 1 mps 708 mmHg 93%
    04:00 -1°C° 0.1 mm 1 mps 708 mmHg 93%
    05:00 -1°C° 0.1 mm 1 mps 708 mmHg 93%
    06:00 -1°C° 0.1 mm 1 mps 708 mmHg 93%
    07:00 -1°C° 0.1 mm 1 mps 708 mmHg 93%
    08:00 -1°C° 0.1 mm 1 mps 708 mmHg 93%
    09:00 -3°C° 0.1 mm 2 mps 707 mmHg 91%
    10:00 -2°C° 0.1 mm 2 mps 707 mmHg 88%
    11:00 -2°C° 0.1 mm 2 mps 707 mmHg 86%
    12:00 -2°C° 0 mm 2 mps 706 mmHg 87%
    13:00 -2°C° 0 mm 2 mps 706 mmHg 87%
    14:00 -2°C° 0 mm 2 mps 705 mmHg 88%
    15:00 0°C° 0.2 mm 1 mps 705 mmHg 90%
    16:00 0°C° 0.2 mm 1 mps 704 mmHg 93%
    17:00 0°C° 0.2 mm 1 mps 704 mmHg 95%
    18:00 +1°C° 0.1 mm 1 mps 704 mmHg 95%
    19:00 -1°C° 0.1 mm 2 mps 704 mmHg 94%
    20:00 +1°C° 0.1 mm 2 mps 704 mmHg 94%
    21:00 +1°C° 0.1 mm 2 mps 703 mmHg 94%
    22:00 +1°C° 0.1 mm 2 mps 703 mmHg 95%
    23:00 +1°C° 0.1 mm 2 mps 703 mmHg 96%

    Day after tomorrow, 12 December, Thursday

    Time Temperature Precipitation Wind Pressure Humidity
    00:00 +1°C° 0.2 mm 2 mps 702 mmHg 96%
    01:00 +1°C° 0.2 mm 2 mps 702 mmHg 96%
    02:00 +1°C° 0.2 mm 2 mps 702 mmHg 97%
    03:00 +1°C° 0 mm 2 mps 701 mmHg 97%
    04:00 +1°C° 0 mm 2 mps 701 mmHg 96%
    05:00 +1°C° 0 mm 2 mps 701 mmHg 96%
    06:00 +1°C° 0 mm 2 mps 701 mmHg 96%
    07:00 +2°C° 0 mm 1 mps 701 mmHg 96%
    08:00 +2°C° 0 mm 1 mps 701 mmHg 96%
    09:00 +2°C° 0 mm 1 mps 700 mmHg 94%
    10:00 +3°C° 0 mm 1 mps 700 mmHg 92%
    11:00 +3°C° 0 mm 1 mps 700 mmHg 89%
    12:00 +4°C° 0 mm 1 mps 700 mmHg 87%
    13:00 +4°C° 0 mm 1 mps 699 mmHg 86%
    14:00 +5°C° 0 mm 1 mps 699 mmHg 84%
    15:00 +4°C° 0 mm 1 mps 699 mmHg 87%
    16:00 +3°C° 0 mm 1 mps 698 mmHg 90%
    17:00 +2°C° 0 mm 1 mps 697 mmHg 93%
    18:00 +1°C° 0 mm 1 mps 697 mmHg 92%
    19:00 +1°C° 0 mm 1 mps 697 mmHg 91%
    20:00 +1°C° 0 mm 1 mps 697 mmHg 90%
    21:00 +1°C° 0 mm 1 mps 697 mmHg 90%
    22:00 -1°C° 0 mm 2 mps 696 mmHg 90%
    23:00 -1°C° 0 mm 2 mps 696 mmHg 89%

    13 December, Friday

    Time Temperature Precipitation Wind Pressure Humidity
    00:00 +1°C° 0.2 mm 2 mps 696 mmHg 91%
    01:00 +1°C° 0.2 mm 2 mps 695 mmHg 93%
    02:00 +1°C° 0.2 mm 2 mps 695 mmHg 94%
    03:00 +1°C° 0.4 mm 2 mps 695 mmHg 95%
    04:00 +1°C° 0.4 mm 2 mps 694 mmHg 95%
    05:00 +2°C° 0.4 mm 2 mps 694 mmHg 96%
    06:00 +2°C° 0.3 mm 2 mps 693 mmHg 95%
    07:00 +2°C° 0.3 mm 2 mps 693 mmHg 95%
    08:00 +2°C° 0.3 mm 2 mps 693 mmHg 95%
    09:00 +1°C° 0.3 mm 3 mps 693 mmHg 95%
    10:00 +1°C° 0.3 mm 3 mps 692 mmHg 94%
    11:00 +1°C° 0.3 mm 3 mps 692 mmHg 94%
    12:00 +1°C° 0.5 mm 3 mps 692 mmHg 94%
    13:00 +2°C° 0.5 mm 3 mps 691 mmHg 94%
    14:00 +2°C° 0.5 mm 3 mps 691 mmHg 94%
    15:00 +2°C° 0.2 mm 3 mps 691 mmHg 94%
    16:00 +2°C° 0.2 mm 3 mps 691 mmHg 94%
    17:00 +2°C° 0.2 mm 3 mps 691 mmHg 95%
    18:00 +2°C° 0.2 mm 3 mps 691 mmHg 94%
    19:00 +2°C° 0.2 mm 3 mps 691 mmHg 94%
    20:00 +3°C° 0.2 mm 2 mps 691 mmHg 94%
    21:00 +2°C° 0.1 mm 2 mps 691 mmHg 94%
    22:00 +2°C° 0.1 mm 2 mps 691 mmHg 94%
    23:00 +2°C° 0.1 mm 2 mps 691 mmHg 94%

    14 December, Saturday

    Time Temperature Precipitation Wind Pressure Humidity
    00:00 +2°C° 0 mm 2 mps 691 mmHg 93%
    01:00 +1°C° 0 mm 2 mps 691 mmHg 92%
    02:00 +1°C° 0 mm 2 mps 691 mmHg 92%
    03:00 +1°C° 0 mm 2 mps 691 mmHg 91%
    04:00 +1°C° 0 mm 2 mps 692 mmHg 91%
    05:00 +1°C° 0 mm 2 mps 692 mmHg 91%
    06:00 +1°C° 0 mm 2 mps 692 mmHg 91%
    07:00 +2°C° 0 mm 1 mps 692 mmHg 91%
    08:00 +2°C° 0 mm 1 mps 693 mmHg 91%
    09:00 +3°C° 0 mm 1 mps 693 mmHg 89%
    10:00 +4°C° 0 mm 1 mps 694 mmHg 86%
    11:00 +4°C° 0 mm 1 mps 694 mmHg 83%
    12:00 +4°C° 0 mm 2 mps 694 mmHg 83%
    13:00 +3°C° 0 mm 3 mps 694 mmHg 83%
    14:00 +3°C° 0 mm 3 mps 695 mmHg 83%
    15:00 +3°C° 0 mm 4 mps 695 mmHg 84%
    16:00 +2°C° 0 mm 5 mps 695 mmHg 86%
    17:00 +1°C° 0 mm 6 mps 696 mmHg 87%
    18:00 +1°C° 0 mm 6 mps 696 mmHg 87%
    19:00 0°C° 0 mm 7 mps 697 mmHg 86%
    20:00 0°C° 0 mm 7 mps 698 mmHg 85%
    21:00 0°C° 0 mm 7 mps 698 mmHg 84%
    22:00 -1°C° 0 mm 7 mps 699 mmHg 83%
    23:00 -1°C° 0 mm 6 mps 699 mmHg 81%

    15 December, Sunday

    Time Temperature Precipitation Wind Pressure Humidity
    00:00 -1°C° 0 mm 6 mps 700 mmHg 81%
    01:00 -1°C° 0 mm 6 mps 700 mmHg 80%
    02:00 -1°C° 0 mm 6 mps 700 mmHg 79%
    03:00 -1°C° 0.1 mm 6 mps 701 mmHg 79%
    04:00 -1°C° 0.1 mm 7 mps 701 mmHg 78%
    05:00 -1°C° 0.1 mm 7 mps 701 mmHg 77%
    06:00 -1°C° 0 mm 6 mps 702 mmHg 79%
    07:00 -1°C° 0 mm 6 mps 702 mmHg 81%
    08:00 0°C° 0 mm 5 mps 702 mmHg 83%
    09:00 0°C° 0 mm 5 mps 703 mmHg 82%
    10:00 +1°C° 0 mm 5 mps 703 mmHg 81%
    11:00 +2°C° 0 mm 5 mps 703 mmHg 80%
    12:00 +2°C° 0 mm 5 mps 703 mmHg 79%
    13:00 +2°C° 0 mm 5 mps 703 mmHg 77%
    14:00 +3°C° 0 mm 5 mps 702 mmHg 76%
    15:00 +2°C° 0 mm 5 mps 702 mmHg 79%
    16:00 +3°C° 0 mm 4 mps 702 mmHg 81%
    17:00 +2°C° 0 mm 3 mps 702 mmHg 84%
    18:00 +3°C° 0 mm 4 mps 703 mmHg 84%
    19:00 +2°C° 0 mm 6 mps 703 mmHg 83%
    20:00 +2°C° 0 mm 7 mps 704 mmHg 83%
    21:00 +2°C° 0 mm 6 mps 704 mmHg 84%
    22:00 +2°C° 0 mm 5 mps 705 mmHg 85%
    23:00 +3°C° 0 mm 4 mps 705 mmHg 87%
    Show more